Weather History for KNFL - December, 2012

Change the Weather History Date:

Wednesday, December 12, 2012

  Actual Average Record
Temperature  
Mean Temperature 40 °F -  
Max Temperature 46 °F 45 °F 65 °F (1929)
Min Temperature 34 °F 18 °F -17 °F (1932)
Degree Days  
Heating Degree Days 25    
Moisture  
Dew Point 29 °F    
Average Humidity 68    
Maximum Humidity 100    
Minimum Humidity 45    
Precipitation  
Precipitation 0.00 in - - ()
Sea Level Pressure  
Sea Level Pressure 29.68 in    
Wind  
Wind Speed 6 mph (NNE)    
Max Wind Speed 9 mph    
Max Gust Speed -    
Visibility 10 miles    
Events Rain , Snow    
Averages and records for this station are not official NWS values.
T = Trace of Precipitation, MM = Missing Value Source: NWS Daily Summary

Daily Weather History Graph

Daily Weather History Graph

Search for Another Location

Airport or City:

Trip Planner

Search our weather history database for the weather conditions in past years. The results will help you decide how hot, cold, wet, or windy it might be!

Date:

Astronomy

Dec. 12, 2012 Rise Set
Actual Time 7:06 AM PST 4:31 PM PST
Civil Twilight 6:35 AM PST 5:01 PM PST
Nautical Twilight 6:02 AM PST 5:35 PM PST
Astronomical Twilight 5:29 AM PST 6:08 PM PST
Moon 6:15 AM PST (12/12) 4:13 PM PST (12/12)
Length of Visible Light 10h 25m
Length of Day
9h 25m
Waning Crescent, 0% of the Moon is Illuminated
Dec 12
Waning Crescent
Dec 13
New
Dec 19
First Quarter
Dec 28
Full
Jan 4
Last Quarter

Hourly Weather History & Observations

Time (PST) Temp. Windchill Dew Point Humidity Pressure Visibility Wind Dir Wind Speed Gust Speed Precip Events Conditions
12:56 AM - - - N/A% 29.64 in - North - - N/A   Unknown
1:56 AM - - - N/A% 29.65 in - North - - N/A   Unknown
2:56 AM - - - N/A% 29.65 in - North - - N/A   Unknown
3:56 AM - - - N/A% 29.65 in - North - - N/A   Unknown
4:56 AM - - - N/A% 29.65 in - North - - N/A   Unknown
5:56 AM 34.0 °F 28.0 °F 20.5 °F 58% 29.65 in 10.0 mi NNE 6.9 mph - N/A   Partly Cloudy
6:56 AM 35.6 °F 32.8 °F 26.4 °F 69% 29.66 in 10.0 mi NNE 3.5 mph - N/A   Scattered Clouds
7:56 AM 34.5 °F 30.4 °F 26.1 °F 71% 29.67 in 10.0 mi NNE 4.6 mph - N/A   Mostly Cloudy
8:56 AM 35.6 °F 31.7 °F 26.6 °F 70% 29.68 in 10.0 mi NNE 4.6 mph - N/A   Mostly Cloudy
9:56 AM 42.3 °F 38.6 °F 28.0 °F 57% 29.68 in 10.0 mi North 5.8 mph - N/A   Mostly Cloudy
10:56 AM 42.3 °F 38.6 °F 28.0 °F 57% 29.67 in 10.0 mi North 5.8 mph - N/A   Mostly Cloudy
11:56 AM 45.5 °F 41.3 °F 25.7 °F 46% 29.65 in 10.0 mi NNW 8.1 mph - N/A Rain Light Rain
12:19 PM 46.4 °F 41.9 °F 26.6 °F 46% 29.70 in 10.0 mi North 9.2 mph - N/A   Mostly Cloudy
12:56 PM 45.9 °F 41.7 °F 25.7 °F 45% 29.64 in 10.0 mi NNE 8.1 mph - N/A Rain Light Rain
1:56 PM 45.9 °F 42.3 °F 26.8 °F 47% 29.63 in 10.0 mi NE 6.9 mph - N/A Rain Light Rain
2:29 PM 44.6 °F 40.2 °F 28.4 °F 53% 29.68 in 10.0 mi NE 8.1 mph - N/A   Mostly Cloudy
2:56 PM 45.9 °F 41.7 °F 26.6 °F 47% 29.63 in 10.0 mi NE 8.1 mph - N/A   Mostly Cloudy
3:29 PM 44.6 °F 40.2 °F 28.4 °F 53% 29.69 in 10.0 mi NE 8.1 mph - N/A Rain Light Rain
3:56 PM 42.8 °F 39.3 °F 31.6 °F 65% 29.65 in 10.0 mi Variable 5.8 mph - N/A Rain Light Rain
4:56 PM 42.3 °F 40.5 °F 27.0 °F 55% 29.66 in 10.0 mi Variable 3.5 mph - 0.00 in Rain Light Rain
5:24 PM 41.0 °F 39.0 °F 28.4 °F 61% 29.73 in 10.0 mi Variable 3.5 mph - N/A   Overcast
5:56 PM 40.3 °F 36.3 °F 34.7 °F 80% 29.66 in 10.0 mi Variable 5.8 mph - 0.00 in Rain Light Rain
6:16 PM 39.2 °F 33.0 °F 32.0 °F 75% 29.72 in 10.0 mi North 9.2 mph - N/A   Overcast
6:56 PM 38.7 °F 34.3 °F 31.5 °F 75% 29.68 in 10.0 mi Variable 5.8 mph - 0.00 in   Overcast
7:10 PM 37.4 °F 32.8 °F 32.0 °F 81% 29.74 in 10.0 mi Variable 5.8 mph - N/A Rain Light Rain
7:39 PM 37.4 °F 32.8 °F 32.0 °F 81% 29.74 in 10.0 mi Variable 5.8 mph - N/A   Overcast
7:56 PM 37.4 °F 34.9 °F 35.6 °F 93% 29.70 in 10.0 mi Variable 3.5 mph - 0.00 in   Overcast
8:56 PM 37.2 °F - 36.1 °F 96% 29.70 in 10.0 mi Calm Calm - 0.00 in   Overcast
9:35 PM 35.6 °F - 35.6 °F 100% 29.77 in 10.0 mi Calm Calm - N/A Rain , Snow Light Rain
9:56 PM 35.2 °F - 32.0 °F 88% 29.71 in 10.0 mi Calm Calm - 0.00 in Rain , Snow Light Rain
10:27 PM 35.6 °F 29.9 °F 32.0 °F 87% 29.77 in 10.0 mi NNE 6.9 mph - N/A   Overcast
10:56 PM 34.7 °F 28.8 °F 32.0 °F 90% 29.73 in 10.0 mi NNE 6.9 mph - N/A   Overcast
11:56 PM - - - N/A% 29.73 in - North - - N/A   Unknown